02-01-2023, 00:00:02,    174,    0.0,    4.8,   0.00,   0.00, 1006.1,    0.0, -999.0
02-01-2023, 00:00:12,    174,    0.0,    4.9,   0.00,   0.00, 1006.1,    0.0, -999.0
02-01-2023, 00:00:22,    174,    0.0,    4.9,   0.00,   0.00, 1006.1,    0.0, -999.0
02-01-2023, 00:00:32,    174,    0.0,    4.9,   0.00,   0.00, 1006.1,    0.0, -999.0
02-01-2023, 00:00:42,    174,    0.0,    4.8,   0.00,   0.00, 1006.0,    0.0, -999.0
02-01-2023, 00:00:52,    174,    0.0,    4.8,   0.00,   0.00, 1006.0,    0.0, -999.0
02-01-2023, 00:01:02,    174,    0.0,    4.8,   0.00,   0.00, 1006.0,    0.0, -999.0
02-01-2023, 00:01:12,    174,    0.0,    4.8,   0.00,   0.00, 1006.0,    0.1, -999.0
02-01-2023, 00:01:22,    174,    0.0,    4.7,   0.00,   0.00, 1006.1,    0.0, -999.0
02-01-2023, 00:01:32,    174,    0.0,    4.7,   0.00,   0.00, 1006.0,    0.0, -999.0
02-01-2023, 00:01:42,    174,    0.0,    4.7,   0.00,   0.00, 1006.1,    0.0, -999.0
02-01-2023, 00:01:51,    174,    0.0,    4.7,   0.00,   0.00, 1006.1,    0.0, -999.0
02-01-2023, 00:02:02,    174,    0.0,    4.6,   0.00,   0.00, 1006.1,    0.0, -999.0
02-01-2023, 00:02:12,    174,    0.0,    4.7,   0.00,   0.00, 1006.1,    0.0, -999.0
02-01-2023, 00:02:22,    173,    0.0,    4.7,   0.00,   0.00, 1006.1,    0.0, -999.0
02-01-2023, 00:02:31,    174,    0.0,    4.7,   0.00,   0.00, 1006.1,    0.0, -999.0
02-01-2023, 00:02:42,    173,    0.0,    4.7,   0.00,   0.00, 1006.1,    0.1, -999.0
02-01-2023, 00:02:52,    174,    0.0,    4.7,   0.00,   0.00, 1006.1,    0.0, -999.0
02-01-2023, 00:03:01,    174,    0.0,    4.6,   0.00,   0.00, 1006.1,    0.0, -999.0
02-01-2023, 00:03:11,    174,    0.0,    4.7,   0.00,   0.00, 1006.1,    0.0, -999.0
02-01-2023, 00:03:22,    173,    0.0,    4.6,   0.00,   0.00, 1006.1,    0.1, -999.0
02-01-2023, 00:03:31,    174,    0.0,    4.7,   0.00,   0.00, 1006.1,    0.0, -999.0
02-01-2023, 00:03:41,    174,    0.0,    4.7,   0.00,   0.00, 1006.1,    0.0, -999.0
02-01-2023, 00:03:52,    174,    0.0,    4.6,   0.00,   0.00, 1006.1,    0.0, -999.0
02-01-2023, 00:04:02,    173,    0.0,    4.7,   0.00,   0.00, 1006.1,    0.1, -999.0
02-01-2023, 00:04:11,    174,    0.0,    4.7,   0.00,   0.00, 1006.0,    0.0, -999.0
02-01-2023, 00:04:21,    174,    0.0,    4.8,   0.00,   0.00, 1006.0,    0.0, -999.0
02-01-2023, 00:04:32,    174,    0.0,    4.8,   0.00,   0.00, 1006.0,    0.0, -999.0
02-01-2023, 00:04:41,    174,    0.0,    4.8,   0.00,   0.00, 1006.0,    0.0, -999.0
02-01-2023, 00:04:51,    174,    0.0,    4.8,   0.00,   0.00, 1006.0,    0.0, -999.0
02-01-2023, 00:05:01,    174,    0.0,    4.8,   0.00,   0.00, 1006.0,    0.0, -999.0
02-01-2023, 00:05:12,    173,    0.0,    4.8,   0.00,   0.00, 1006.0,    0.0, -999.0
02-01-2023, 00:05:21,    174,    0.0,    4.7,   0.00,   0.00, 1006.0,    0.1, -999.0
02-01-2023, 00:05:31,    174,    0.0,    4.8,   0.00,   0.00, 1006.0,    0.0, -999.0
02-01-2023, 00:05:41,    174,    0.0,    4.8,   0.00,   0.00, 1006.0,    0.0, -999.0
02-01-2023, 00:05:51,    174,    0.0,    4.8,   0.00,   0.00, 1006.0,    0.1, -999.0
02-01-2023, 00:06:01,    174,    0.0,    4.8,   0.00,   0.00, 1006.0,    0.0, -999.0
02-01-2023, 00:06:11,    174,    0.0,    4.8,   0.00,   0.00, 1006.0,    0.1, -999.0
02-01-2023, 00:06:21,    174,    0.0,    4.9,   0.00,   0.00, 1006.0,    0.0, -999.0
02-01-2023, 00:06:31,    174,    0.0,    4.8,   0.00,   0.00, 1006.0,    0.0, -999.0
02-01-2023, 00:06:41,    174,    0.0,    4.8,   0.00,   0.01, 1006.0,    0.0, -999.0
02-01-2023, 00:06:51,    174,    0.0,    4.9,   0.00,   0.00, 1006.0,    0.0, -999.0
02-01-2023, 00:07:01,    174,    0.0,    4.8,   0.00,   0.00, 1006.0,    0.0, -999.0
02-01-2023, 00:07:11,    174,    0.0,    4.8,   0.00,   0.00, 1006.0,    0.1, -999.0
02-01-2023, 00:07:21,    174,    0.0,    4.8,   0.00,   0.00, 1006.0,    0.0, -999.0
02-01-2023, 00:07:31,    173,    0.0,    4.7,   0.00,   0.00, 1006.0,    0.0, -999.0
02-01-2023, 00:07:41,    174,    0.0,    4.7,   0.00,   0.00, 1006.0,    0.0, -999.0
02-01-2023, 00:07:52,    174,    0.0,    4.7,   0.00,   0.00, 1006.0,    0.0, -999.0
02-01-2023, 00:08:01,    174,    0.0,    4.7,   0.00,   0.00, 1006.0,    0.0, -999.0
02-01-2023, 00:08:11,    174,    0.0,    4.7,   0.00,   0.00, 1006.1,    0.1, -999.0
02-01-2023, 00:08:21,    174,    0.0,    4.8,   0.00,   0.00, 1006.1,    0.0, -999.0
02-01-2023, 00:08:31,    174,    0.0,    4.9,   0.00,   0.00, 1006.1,    0.0, -999.0
02-01-2023, 00:08:41,    174,    0.0,    4.9,   0.00,   0.00, 1006.1,    0.0, -999.0
02-01-2023, 00:08:51,    174,    0.0,    4.8,   0.00,   0.00, 1006.1,    0.1, -999.0
02-01-2023, 00:09:01,    173,    0.0,    4.8,   0.00,   0.00, 1006.1,    0.0, -999.0
02-01-2023, 00:09:11,    174,    0.0,    4.8,   0.00,   0.00, 1006.0,    0.0, -999.0
02-01-2023, 00:09:21,    174,    0.0,    4.8,   0.00,   0.00, 1006.0,    0.0, -999.0
02-01-2023, 00:09:31,    174,    0.0,    4.8,   0.00,   0.00, 1006.0,    0.0, -999.0
02-01-2023, 00:09:41,    174,    0.0,    4.8,   0.00,   0.00, 1006.0,    0.1, -999.0
02-01-2023, 00:09:51,    174,    0.0,    4.8,   0.00,   0.00, 1006.0,    0.0, -999.0
02-01-2023, 00:10:01,    173,    0.0,    4.7,   0.00,   0.00, 1006.0,    0.2, -999.0
02-01-2023, 00:10:11,    174,    0.0,    4.7,   0.00,   0.00, 1006.0,    0.0, -999.0
02-01-2023, 00:10:21,    174,    0.0,    4.7,   0.00,   0.00, 1006.0,    0.0, -999.0
02-01-2023, 00:10:31,    173,    0.0,    4.7,   0.00,   0.00, 1006.0,    0.2, -999.0
02-01-2023, 00:10:41,    174,    0.0,    4.7,   0.00,   0.00, 1006.0,    0.0, -999.0
02-01-2023, 00:10:50,    174,    0.0,    4.7,   0.00,   0.00, 1006.0,    0.0, -999.0
02-01-2023, 00:11:01,    174,    0.0,    4.7,   0.00,   0.00, 1006.0,    0.0, -999.0
02-01-2023, 00:11:11,    173,    0.0,    4.8,   0.00,   0.00, 1005.9,    0.0, -999.0
02-01-2023, 00:11:21,    174,    0.0,    4.8,   0.00,   0.00, 1005.9,    0.1, -999.0
02-01-2023, 00:11:30,    174,    0.0,    4.7,   0.00,   0.00, 1005.9,    0.0, -999.0
02-01-2023, 00:11:41,    174,    0.0,    4.7,   0.00,   0.00, 1005.9,    0.1, -999.0
02-01-2023, 00:11:51,    173,    0.0,    4.7,   0.00,   0.00, 1005.9,    0.0, -999.0
02-01-2023, 00:12:00,    173,    0.0,    4.6,   0.00,   0.00, 1005.9,    0.0, -999.0
02-01-2023, 00:12:10,    174,    0.0,    4.7,   0.00,   0.00, 1005.9,    0.0, -999.0
02-01-2023, 00:12:21,    173,    0.0,    4.7,   0.00,   0.00, 1005.9,    0.0, -999.0
02-01-2023, 00:12:31,    174,    0.0,    4.6,   0.00,   0.00, 1005.9,    0.0, -999.0
02-01-2023, 00:12:40,    174,    0.0,    4.7,   0.00,   0.00, 1005.9,    0.0, -999.0
02-01-2023, 00:12:50,    174,    0.0,    4.7,   0.00,   0.00, 1006.0,    0.0, -999.0
02-01-2023, 00:13:01,    174,    0.0,    4.7,   0.00,   0.00, 1005.9,    0.1, -999.0
02-01-2023, 00:13:10,    174,    0.0,    4.7,   0.00,   0.00, 1006.0,    0.1, -999.0
02-01-2023, 00:13:20,    174,    0.0,    4.7,   0.00,   0.00, 1005.9,    0.0, -999.0
02-01-2023, 00:13:30,    174,    0.0,    4.8,   0.00,   0.00, 1005.9,    0.0, -999.0
02-01-2023, 00:13:40,    174,    0.0,    4.6,   0.00,   0.00, 1006.0,    0.0, -999.0
02-01-2023, 00:13:50,    174,    0.0,    4.5,   0.00,   0.00, 1005.9,    0.0, -999.0
02-01-2023, 00:14:00,    174,    0.0,    4.7,   0.00,   0.00, 1006.0,    0.1, -999.0
02-01-2023, 00:14:11,    174,    0.0,    4.6,   0.00,   0.00, 1006.0,    0.0, -999.0
02-01-2023, 00:14:20,    174,    0.0,    4.6,   0.00,   0.00, 1006.0,    0.0, -999.0
02-01-2023, 00:14:30,    174,    0.0,    4.6,   0.00,   0.00, 1006.0,    0.1, -999.0
02-01-2023, 00:14:40,    174,    0.0,    4.6,   0.00,   0.00, 1006.0,    0.0, -999.0
02-01-2023, 00:14:50,    174,    0.0,    4.6,   0.00,   0.00, 1006.0,    0.0, -999.0
02-01-2023, 00:15:00,    173,    0.0,    4.5,   0.00,   0.00, 1006.0,    0.1, -999.0
02-01-2023, 00:15:10,    174,    0.0,    4.5,   0.00,   0.00, 1006.0,    0.0, -999.0
02-01-2023, 00:15:20,    174,    0.0,    4.6,   0.00,   0.00, 1006.0,    0.1, -999.0
02-01-2023, 00:15:30,    174,    0.0,    4.6,   0.00,   0.00, 1006.0,    0.0, -999.0
02-01-2023, 00:15:40,    173,    0.0,    4.6,   0.00,   0.00, 1006.0,    0.0, -999.0
02-01-2023, 00:15:50,    174,    0.0,    4.6,   0.00,   0.00, 1006.0,    0.0, -999.0
02-01-2023, 00:16:00,    174,    0.0,    4.5,   0.00,   0.00, 1006.0,    0.0, -999.0
02-01-2023, 00:16:10,    174,    0.0,    4.6,   0.00,   0.00, 1006.0,    0.0, -999.0
02-01-2023, 00:16:20,    174,    0.0,    4.6,   0.00,   0.00, 1006.0,    0.0, -999.0
02-01-2023, 00:16:30,    174,    0.0,    4.6,   0.00,   0.00, 1006.0,    0.1, -999.0
02-01-2023, 00:16:40,    174,    0.0,    4.6,   0.00,   0.00, 1006.0,    0.0, -999.0
02-01-2023, 00:16:50,    173,    0.0,    4.6,   0.00,   0.00, 1006.0,    0.0, -999.0
02-01-2023, 00:17:00,    174,    0.0,    4.6,   0.00,   0.00, 1006.0,    0.0, -999.0
02-01-2023, 00:17:10,    174,    0.0,    4.6,   0.00,   0.00, 1006.0,    0.0, -999.0
02-01-2023, 00:17:20,    174,    0.0,    4.6,   0.00,   0.00, 1006.0,    0.0, -999.0
02-01-2023, 00:17:30,    174,    0.0,    4.6,   0.00,   0.00, 1006.0,    0.0, -999.0
02-01-2023, 00:17:40,    174,    0.0,    4.7,   0.00,   0.00, 1006.0,    0.0, -999.0
02-01-2023, 00:17:50,    174,    0.0,    4.7,   0.00,   0.00, 1006.0,    0.1, -999.0
02-01-2023, 00:18:00,    173,    0.0,    4.6,   0.00,   0.00, 1006.0,    0.0, -999.0
02-01-2023, 00:18:10,    174,    0.0,    4.6,   0.00,   0.00, 1006.0,    0.1, -999.0
02-01-2023, 00:18:20,    174,    0.0,    4.6,   0.00,   0.00, 1006.0,    0.0, -999.0
02-01-2023, 00:18:30,    174,    0.0,    4.6,   0.00,   0.00, 1006.0,    0.0, -999.0
02-01-2023, 00:18:40,    173,    0.0,    4.6,   0.00,   0.00, 1006.0,    0.0, -999.0
02-01-2023, 00:18:50,    173,    0.0,    4.5,   0.00,   0.00, 1005.9,    0.0, -999.0
02-01-2023, 00:19:00,    174,    0.0,    4.5,   0.00,   0.00, 1005.9,    0.0, -999.0
02-01-2023, 00:19:10,    174,    0.0,    4.5,   0.00,   0.00, 1005.9,    0.0, -999.0
02-01-2023, 00:19:19,    174,    0.0,    4.6,   0.00,   0.00, 1005.9,    0.0, -999.0
02-01-2023, 00:19:30,    173,    0.0,    4.6,   0.00,   0.00, 1005.9,    0.0, -999.0
02-01-2023, 00:19:40,    174,    0.0,    4.6,   0.00,   0.00, 1005.9,    0.0, -999.0
02-01-2023, 00:19:50,    174,    0.0,    4.6,   0.00,   0.00, 1005.9,    0.1, -999.0
02-01-2023, 00:19:59,    174,    0.0,    4.6,   0.00,   0.00, 1005.9,    0.0, -999.0
02-01-2023, 00:20:10,    174,    0.0,    4.6,   0.00,   0.00, 1005.9,    0.0, -999.0
02-01-2023, 00:20:20,    174,    0.0,    4.6,   0.00,   0.00, 1005.9,    0.1, -999.0
02-01-2023, 00:20:29,    174,    0.0,    4.6,   0.00,   0.00, 1005.9,    0.0, -999.0
02-01-2023, 00:20:39,    174,    0.0,    4.6,   0.00,   0.00, 1005.9,    0.0, -999.0
02-01-2023, 00:20:50,    174,    0.0,    4.6,   0.00,   0.01, 1005.9,    0.0, -999.0
02-01-2023, 00:20:59,    174,    0.0,    4.5,   0.00,   0.00, 1005.9,    0.0, -999.0
02-01-2023, 00:21:09,    174,    0.0,    4.5,   0.00,   0.00, 1005.9,    0.0, -999.0
02-01-2023, 00:21:19,    174,    0.0,    4.6,   0.00,   0.00, 1005.9,    0.1, -999.0
02-01-2023, 00:21:30,    174,    0.0,    4.5,   0.00,   0.00, 1005.9,    0.0, -999.0
02-01-2023, 00:21:39,    174,    0.0,    4.4,   0.00,   0.00, 1005.9,    0.0, -999.0
02-01-2023, 00:21:49,    174,    0.0,    4.5,   0.00,   0.00, 1005.9,    0.0, -999.0
02-01-2023, 00:22:00,    174,    0.0,    4.6,   0.00,   0.00, 1005.9,    0.0, -999.0
02-01-2023, 00:22:09,    174,    0.0,    4.6,   0.00,   0.00, 1005.9,    0.0, -999.0
02-01-2023, 00:22:19,    174,    0.0,    4.6,   0.00,   0.00, 1005.9,    0.0, -999.0
02-01-2023, 00:22:29,    174,    0.0,    4.5,   0.00,   0.00, 1005.9,    0.1, -999.0
02-01-2023, 00:22:39,    174,    0.0,    4.5,   0.00,   0.00, 1005.9,    0.0, -999.0
02-01-2023, 00:22:49,    173,    0.0,    4.4,   0.00,   0.00, 1005.9,    0.0, -999.0
02-01-2023, 00:22:59,    173,    0.0,    4.5,   0.00,   0.00, 1005.9,    0.0, -999.0
02-01-2023, 00:23:09,    174,    0.0,    4.5,   0.00,   0.00, 1005.9,    0.0, -999.0
02-01-2023, 00:23:19,    174,    0.0,    4.5,   0.00,   0.00, 1005.9,    0.1, -999.0
02-01-2023, 00:23:29,    174,    0.0,    4.5,   0.00,   0.00, 1005.9,    0.0, -999.0
02-01-2023, 00:23:39,    173,    0.0,    4.5,   0.00,   0.00, 1005.9,    0.0, -999.0
02-01-2023, 00:23:49,    173,    0.0,    4.5,   0.00,   0.00, 1005.9,    0.0, -999.0
02-01-2023, 00:23:59,    174,    0.0,    4.5,   0.00,   0.00, 1005.9,    0.0, -999.0
02-01-2023, 00:24:09,    173,    0.0,    4.6,   0.00,   0.00, 1005.9,    0.0, -999.0
02-01-2023, 00:24:19,    173,    0.0,    4.5,   0.00,   0.00, 1005.9,    0.1, -999.0
02-01-2023, 00:24:29,    174,    0.0,    4.5,   0.00,   0.00, 1005.9,    0.0, -999.0
02-01-2023, 00:24:39,    174,    0.0,    4.5,   0.00,   0.00, 1005.9,    0.0, -999.0
02-01-2023, 00:24:49,    174,    0.0,    4.5,   0.00,   0.00, 1005.9,    0.0, -999.0
02-01-2023, 00:24:59,    174,    0.0,    4.5,   0.00,   0.00, 1005.9,    0.0, -999.0
02-01-2023, 00:25:09,    173,    0.0,    4.6,   0.00,   0.00, 1005.9,    0.0, -999.0
02-01-2023, 00:25:19,    174,    0.0,    4.5,   0.00,   0.00, 1005.9,    0.0, -999.0
02-01-2023, 00:25:29,    175,    0.0,    4.5,   0.00,   0.00, 1005.9,    0.0, -999.0
02-01-2023, 00:25:39,    174,    0.0,    4.5,   0.00,   0.00, 1005.9,    0.1, -999.0
02-01-2023, 00:25:49,    174,    0.0,    4.4,   0.00,   0.00, 1005.9,    0.2, -999.0
02-01-2023, 00:25:59,    174,    0.0,    4.5,   0.00,   0.00, 1005.9,    0.0, -999.0
02-01-2023, 00:26:09,    174,    0.0,    4.5,   0.00,   0.00, 1005.9,    0.0, -999.0
02-01-2023, 00:26:19,    174,    0.0,    4.5,   0.00,   0.00, 1005.9,    0.1, -999.0
02-01-2023, 00:26:29,    174,    0.0,    4.5,   0.00,   0.00, 1005.9,    0.0, -999.0
02-01-2023, 00:26:39,    174,    0.0,    4.5,   0.00,   0.00, 1005.9,    0.1, -999.0
02-01-2023, 00:26:49,    173,    0.0,    4.5,   0.00,   0.00, 1005.9,    0.0, -999.0
02-01-2023, 00:26:59,    174,    0.0,    4.5,   0.00,   0.00, 1005.9,    0.2, -999.0
02-01-2023, 00:27:09,    174,    0.0,    4.5,   0.00,   0.00, 1005.9,    0.0, -999.0
02-01-2023, 00:27:19,    173,    0.0,    4.5,   0.00,   0.00, 1005.9,    0.1, -999.0
02-01-2023, 00:27:29,    173,    0.0,    4.5,   0.00,   0.00, 1005.9,    0.0, -999.0
02-01-2023, 00:27:39,    174,    0.0,    4.5,   0.00,   0.00, 1005.9,    0.0, -999.0
02-01-2023, 00:27:48,    174,    0.0,    4.6,   0.00,   0.00, 1005.9,    0.1, -999.0
02-01-2023, 00:27:59,    174,    0.0,    4.6,   0.00,   0.00, 1005.9,    0.1, -999.0
02-01-2023, 00:28:09,    173,    0.0,    4.6,   0.00,   0.00, 1005.9,    0.0, -999.0
02-01-2023, 00:28:19,    173,    0.0,    4.5,   0.00,   0.00, 1005.9,    0.1, -999.0
02-01-2023, 00:28:28,    173,    0.0,    4.6,   0.00,   0.00, 1005.9,    0.1, -999.0
02-01-2023, 00:28:39,    174,    0.0,    4.5,   0.00,   0.00, 1005.9,    0.0, -999.0
02-01-2023, 00:28:49,    174,    0.0,    4.5,   0.00,   0.00, 1005.9,    0.0, -999.0
02-01-2023, 00:28:58,    174,    0.0,    4.4,   0.00,   0.00, 1005.9,    0.0, -999.0
02-01-2023, 00:29:09,    174,    0.0,    4.4,   0.00,   0.00, 1005.9,    0.0, -999.0
02-01-2023, 00:29:19,    173,    0.0,    4.5,   0.00,   0.00, 1005.9,    0.0, -999.0
02-01-2023, 00:29:28,    174,    0.0,    4.4,   0.00,   0.00, 1005.8,    0.0, -999.0
02-01-2023, 00:29:38,    174,    0.0,    4.5,   0.00,   0.00, 1005.9,    0.0, -999.0
02-01-2023, 00:29:49,    174,    0.0,    4.5,   0.00,   0.00, 1005.9,    0.0, -999.0
02-01-2023, 00:29:59,    173,    0.0,    4.5,   0.00,   0.00, 1005.9,    0.1, -999.0
02-01-2023, 00:30:08,    173,    0.0,    4.4,   0.00,   0.00, 1005.9,    0.0, -999.0
02-01-2023, 00:30:18,    173,    0.0,    4.4,   0.00,   0.00, 1005.9,    0.0, -999.0
02-01-2023, 00:30:29,    173,    0.0,    4.5,   0.00,   0.00, 1005.9,    0.0, -999.0
02-01-2023, 00:30:38,    174,    0.0,    4.4,   0.00,   0.00, 1005.9,    0.0, -999.0
02-01-2023, 00:30:48,    174,    0.0,    4.4,   0.00,   0.00, 1005.9,    0.0, -999.0
02-01-2023, 00:30:58,    174,    0.0,    4.5,   0.00,   0.00, 1005.8,    0.0, -999.0
02-01-2023, 00:31:08,    174,    0.0,    4.4,   0.00,   0.00, 1005.9,    0.1, -999.0
02-01-2023, 00:31:18,    173,    0.0,    4.4,   0.00,   0.00, 1005.9,    0.1, -999.0
02-01-2023, 00:31:28,    173,    0.0,    4.4,   0.00,   0.00, 1005.9,    0.0, -999.0
02-01-2023, 00:31:38,    173,    0.0,    4.4,   0.00,   0.00, 1005.9,    0.1, -999.0
02-01-2023, 00:31:48,    173,    0.0,    4.4,   0.00,   0.00, 1005.9,    0.1, -999.0
02-01-2023, 00:31:58,    173,    0.0,    4.4,   0.00,   0.00, 1005.9,    0.0, -999.0
02-01-2023, 00:32:08,    173,    0.0,    4.4,   0.00,   0.00, 1005.9,    0.0, -999.0
02-01-2023, 00:32:18,    173,    0.0,    4.4,   0.00,   0.00, 1005.9,    0.0, -999.0
02-01-2023, 00:32:28,    173,    0.0,    4.4,   0.00,   0.00, 1005.9,    0.0, -999.0
02-01-2023, 00:32:38,    174,    0.0,    4.4,   0.00,   0.00, 1005.9,    0.0, -999.0
02-01-2023, 00:32:48,    173,    0.0,    4.3,   0.00,   0.00, 1005.9,    0.1, -999.0
02-01-2023, 00:32:58,    173,    0.0,    4.3,   0.00,   0.00, 1005.9,    0.0, -999.0
02-01-2023, 00:33:08,    173,    0.0,    4.4,   0.00,   0.00, 1005.9,    0.0, -999.0
02-01-2023, 00:33:18,    173,    0.0,    4.3,   0.00,   0.00, 1005.9,    0.1, -999.0
02-01-2023, 00:33:28,    174,    0.0,    4.5,   0.00,   0.00, 1005.9,    0.0, -999.0
02-01-2023, 00:33:38,    173,    0.0,    4.5,   0.00,   0.00, 1005.9,    0.0, -999.0
02-01-2023, 00:33:48,    173,    0.0,    4.4,   0.00,   0.00, 1005.9,    0.0, -999.0
02-01-2023, 00:33:58,    173,    0.0,    4.5,   0.00,   0.00, 1005.9,    0.0, -999.0
02-01-2023, 00:34:08,    174,    0.0,    4.5,   0.00,   0.00, 1005.9,    0.1, -999.0
02-01-2023, 00:34:18,    174,    0.0,    4.3,   0.00,   0.00, 1005.9,    0.0, -999.0
02-01-2023, 00:34:28,    174,    0.0,    4.4,   0.00,   0.00, 1005.9,    0.0, -999.0
02-01-2023, 00:34:38,    173,    0.0,    4.4,   0.00,   0.00, 1005.9,    0.0, -999.0
02-01-2023, 00:34:48,    174,    0.0,    4.5,   0.00,   0.00, 1006.0,    0.0, -999.0
02-01-2023, 00:34:58,    173,    0.0,    4.5,   0.00,   0.00, 1006.0,    0.0, -999.0
02-01-2023, 00:35:08,    174,    0.0,    4.4,   0.00,   0.00, 1006.0,    0.0, -999.0
02-01-2023, 00:35:18,    173,    0.0,    4.4,   0.00,   0.00, 1006.0,    0.0, -999.0
02-01-2023, 00:35:28,    174,    0.0,    4.4,   0.00,   0.00, 1006.0,    0.0, -999.0
02-01-2023, 00:35:38,    173,    0.0,    4.4,   0.00,   0.00, 1006.0,    0.1, -999.0
02-01-2023, 00:35:48,    174,    0.0,    4.4,   0.00,   0.00, 1006.0,    0.0, -999.0
02-01-2023, 00:35:58,    173,    0.0,    4.4,   0.00,   0.00, 1006.0,    0.1, -999.0
02-01-2023, 00:36:08,    174,    0.0,    4.4,   0.00,   0.00, 1005.9,    0.0, -999.0
02-01-2023, 00:36:18,    174,    0.0,    4.4,   0.00,   0.00, 1006.0,    0.0, -999.0
02-01-2023, 00:36:28,    173,    0.0,    4.4,   0.00,   0.00, 1005.9,    0.0, -999.0
02-01-2023, 00:36:38,    174,    0.0,    4.4,   0.00,   0.00, 1006.0,    0.0, -999.0
02-01-2023, 00:36:47,    173,    0.0,    4.4,   0.00,   0.00, 1005.9,    0.1, -999.0
02-01-2023, 00:36:58,    174,    0.0,    4.4,   0.00,   0.00, 1006.0,    0.1, -999.0
02-01-2023, 00:37:08,    173,    0.0,    4.4,   0.00,   0.00, 1006.0,    0.1, -999.0
02-01-2023, 00:37:18,    173,    0.0,    4.5,   0.00,   0.00, 1006.0,    0.0, -999.0
02-01-2023, 00:37:27,    174,    0.0,    4.4,   0.00,   0.00, 1006.0,    0.1, -999.0
02-01-2023, 00:37:38,    173,    0.1,    4.5,   0.00,   0.00, 1006.0,    0.0, -999.0
02-01-2023, 00:37:48,    173,    0.0,    4.5,   0.00,   0.00, 1006.0,    0.0, -999.0
02-01-2023, 00:37:57,    174,    0.0,    4.4,   0.00,   0.00, 1006.0,    0.1, -999.0
02-01-2023, 00:38:07,    174,    0.0,    4.4,   0.00,   0.00, 1005.9,    0.0, -999.0
02-01-2023, 00:38:18,    173,    0.0,    4.4,   0.00,   0.00, 1006.0,    0.0, -999.0
02-01-2023, 00:38:28,    173,    0.0,    4.4,   0.00,   0.01, 1006.0,    0.1, -999.0
02-01-2023, 00:38:37,    174,    0.0,    4.4,   0.00,   0.00, 1006.0,    0.0, -999.0
02-01-2023, 00:38:47,    173,    0.0,    4.4,   0.00,   0.00, 1006.0,    0.1, -999.0
02-01-2023, 00:38:58,    173,    0.0,    4.4,   0.00,   0.00, 1006.0,    0.0, -999.0
02-01-2023, 00:39:07,    173,    0.0,    4.3,   0.00,   0.00, 1005.9,    0.0, -999.0
02-01-2023, 00:39:17,    173,    0.0,    4.4,   0.00,   0.00, 1005.9,    0.1, -999.0
02-01-2023, 00:39:27,    173,    0.0,    4.2,   0.00,   0.00, 1006.0,    0.0, -999.0
02-01-2023, 00:39:38,    173,    0.0,    4.3,   0.00,   0.00, 1006.0,    0.0, -999.0
02-01-2023, 00:39:47,    174,    0.0,    4.4,   0.00,   0.00, 1006.0,    0.1, -999.0
02-01-2023, 00:39:57,    174,    0.0,    4.4,   0.00,   0.00, 1006.0,    0.0, -999.0
02-01-2023, 00:40:07,    174,    0.0,    4.3,   0.00,   0.00, 1006.0,    0.0, -999.0
02-01-2023, 00:40:17,    173,    0.0,    4.3,   0.00,   0.00, 1005.9,    0.0, -999.0
02-01-2023, 00:40:27,    174,    0.0,    4.4,   0.00,   0.00, 1006.0,    0.0, -999.0
02-01-2023, 00:40:37,    173,    0.0,    4.4,   0.00,   0.00, 1005.9,    0.0, -999.0
02-01-2023, 00:40:47,    174,    0.0,    4.4,   0.00,   0.00, 1005.9,    0.0, -999.0
02-01-2023, 00:40:57,    173,    0.0,    4.4,   0.00,   0.00, 1005.9,    0.0, -999.0
02-01-2023, 00:41:07,    180,    0.0,    4.4,   0.00,   0.00, 1005.9,    0.0, -999.0
02-01-2023, 00:41:17,    180,    0.0,    4.3,   0.00,   0.00, 1005.9,    0.0, -999.0
02-01-2023, 00:41:27,    181,    0.0,    4.3,   0.00,   0.00, 1005.9,    0.0, -999.0
02-01-2023, 00:41:37,    180,    0.0,    4.3,   0.00,   0.00, 1005.9,    0.0, -999.0
02-01-2023, 00:41:47,    152,    0.7,    4.3,   0.00,   0.00, 1006.0,    0.2, -999.0
02-01-2023, 00:41:57,    152,    0.3,    4.4,   0.00,   0.00, 1006.0,    0.0, -999.0
02-01-2023, 00:42:07,    152,    0.0,    4.3,   0.00,   0.00, 1006.0,    0.0, -999.0
02-01-2023, 00:42:17,    152,    0.0,    4.3,   0.00,   0.00, 1005.9,    0.0, -999.0
02-01-2023, 00:42:27,    152,    0.0,    4.3,   0.00,   0.00, 1005.9,    0.0, -999.0
02-01-2023, 00:42:37,    152,    0.0,    4.3,   0.00,   0.00, 1005.9,    0.1, -999.0
02-01-2023, 00:42:47,    152,    0.0,    4.3,   0.00,   0.00, 1005.9,    0.1, -999.0
02-01-2023, 00:42:57,    151,    0.0,    4.3,   0.00,   0.00, 1005.9,    0.1, -999.0
02-01-2023, 00:43:07,    152,    0.0,    4.4,   0.00,   0.00, 1006.0,    0.0, -999.0
02-01-2023, 00:43:17,    152,    0.0,    4.4,   0.00,   0.00, 1005.9,    0.0, -999.0
02-01-2023, 00:43:27,    152,    0.0,    4.4,   0.00,   0.00, 1005.9,    0.2, -999.0
02-01-2023, 00:43:37,    152,    0.0,    4.3,   0.00,   0.00, 1005.9,    0.0, -999.0
02-01-2023, 00:43:47,    153,    1.1,    4.4,   0.00,   0.00, 1006.1,    0.0, -999.0
02-01-2023, 00:43:57,    152,    0.2,    4.4,   0.00,   0.00, 1006.0,    0.2, -999.0
02-01-2023, 00:44:07,    152,    0.0,    4.4,   0.00,   0.00, 1005.9,    0.0, -999.0
02-01-2023, 00:44:18,    152,    0.0,    4.4,   0.00,   0.00, 1005.9,    0.0, -999.0
02-01-2023, 00:44:27,    152,    0.0,    4.4,   0.00,   0.00, 1005.9,    0.0, -999.0
02-01-2023, 00:44:37,    152,    0.0,    4.3,   0.00,   0.00, 1005.9,    0.0, -999.0
02-01-2023, 00:44:47,    152,    0.0,    4.3,   0.00,   0.00, 1005.9,    0.0, -999.0
02-01-2023, 00:44:57,    152,    0.0,    4.3,   0.00,   0.00, 1005.9,    0.1, -999.0
02-01-2023, 00:45:07,    152,    0.0,    4.2,   0.00,   0.00, 1005.9,    0.0, -999.0
02-01-2023, 00:45:17,    152,    0.0,    4.2,   0.00,   0.00, 1005.9,    0.0, -999.0
02-01-2023, 00:45:27,    152,    0.0,    4.2,   0.00,   0.00, 1005.9,    0.0, -999.0
02-01-2023, 00:45:37,    152,    0.0,    4.2,   0.00,   0.00, 1005.9,    0.1, -999.0
02-01-2023, 00:45:46,    152,    0.0,    4.2,   0.00,   0.00, 1005.9,    0.0, -999.0
02-01-2023, 00:45:57,    152,    0.0,    4.2,   0.00,   0.00, 1005.9,    0.0, -999.0
02-01-2023, 00:46:07,    152,    0.0,    4.1,   0.00,   0.00, 1005.9,    0.0, -999.0
02-01-2023, 00:46:17,    152,    0.0,    4.2,   0.00,   0.00, 1005.9,    0.1, -999.0
02-01-2023, 00:46:26,    152,    0.0,    4.2,   0.00,   0.00, 1005.9,    0.0, -999.0
02-01-2023, 00:46:37,    152,    0.0,    4.2,   0.00,   0.00, 1005.9,    0.0, -999.0
02-01-2023, 00:46:47,    152,    0.0,    4.3,   0.00,   0.00, 1005.9,    0.0, -999.0